GW5292 Weather Reports


time (UTC)temp
C
wind
direction
speed
KPH
gust
KPH
rain 1hr
cm
rain 24hr
cm
rain mn
cm
humidity
%
barometer
mb
20260504010025 11 209 0.0 3.2 0.00 0.00 0.00 46 1012.9
20260504004510 12 209 0.0 3.2 0.00 0.00 0.00 44 1012.7
20260504003012 12 209 0.0 3.2 0.00 0.00 0.00 43 1012.5
20260504001519 13 213 1.6 3.2 0.00 0.00 0.00 41 1012.3
20260504000022 13 204 1.6 6.4 0.00 0.00 0.00 40 1012.2
20260503234537 13 192 1.6 9.7 0.00 0.00 0.00 40 1012.0
20260503233007 14 198 3.2 11.3 0.00 0.00 0.00 38 1012.0
20260503231512 14 210 1.6 8.0 0.00 0.00 0.00 38 1011.9
20260503230022 15 220 1.6 8.0 0.00 0.00 0.00 36 1011.8
20260503224503 15 184 4.8 9.7 0.00 0.00 0.00 36 1011.7
20260503223008 15 200 4.8 9.7 0.00 0.00 0.00 37 1011.6
20260503221511 14 180 3.2 9.7 0.00 0.00 0.00 36 1011.7
20260503220010 15 173 1.6 16.1 0.00 0.00 0.00 36 1011.8
20260503214502 15 179 3.2 9.7 0.00 0.00 0.00 36 1011.7
20260503213008 15 167 1.6 9.7 0.00 0.00 0.00 37 1011.6
20260503211507 15 130 1.6 11.3 0.00 0.00 0.00 35 1011.7
20260503210011 16 267 3.2 14.5 0.00 0.00 0.00 32 1011.7
20260503204504 15 207 4.8 9.7 0.00 0.00 0.00 33 1011.6
20260503203003 15 192 6.4 17.7 0.00 0.00 0.00 35 1012.0
20260503201503 15 234 3.2 11.3 0.00 0.00 0.00 36 1011.9
20260503200012 15 202 4.8 8.0 0.00 0.00 0.00 36 1012.0
20260503194513 15 198 0.0 11.3 0.00 0.00 0.00 37 1012.2
20260503193003 14 149 3.2 16.1 0.00 0.00 0.00 36 1012.5
20260503191505 14 227 4.8 17.7 0.00 0.00 0.00 38 1012.7
20260503190008 14 55 3.2 11.3 0.00 0.00 0.00 38 1012.9
20260503184512 14 69 3.2 16.1 0.00 0.00 0.00 38 1013.1
20260503183026 13 126 3.2 8.0 0.00 0.00 0.00 39 1013.2
20260503181503 13 115 6.4 17.7 0.00 0.00 0.00 39 1013.3
20260503180015 14 69 1.6 8.0 0.00 0.00 0.00 42 1013.3
20260503174513 14 137 1.6 8.0 0.00 0.00 0.00 35 1013.3
20260503173018 13 126 1.6 8.0 0.00 0.00 0.00 39 1013.6
20260503171520 13 158 3.2 9.7 0.00 0.00 0.00 41 1013.8
20260503081511 7 140 0.0 0.0 0.00 0.00 0.00 62 1012.2
20260503071514 7 9 3.2 6.4 0.00 0.00 0.00 62 1011.7
20260503054513 8 241 0.0 3.2 0.00 0.10 0.00 62 1011.9
20260503053002 8 250 0.0 4.8 0.00 0.13 0.00 61 1011.9
20260503051503 8 200 0.0 3.2 0.00 0.13 0.00 62 1012.1
20260503050010 8 243 0.0 3.2 0.00 0.13 0.00 62 1012.2
20260503044503 8 257 0.0 3.2 0.00 0.13 0.00 61 1012.4
20260503043016 8 265 0.0 3.2 0.00 0.13 0.00 61 1012.5
20260503041507 8 262 0.0 4.8 0.00 0.13 0.00 63 1012.6
20260503040005 8 209 0.0 4.8 0.00 0.13 0.00 62 1012.6
20260503034504 8 229 0.0 3.2 0.00 0.13 0.13 62 1012.7
20260503033008 8 183 0.0 3.2 0.00 0.13 0.13 62 1012.7
20260503031508 9 177 0.0 3.2 0.00 0.13 0.13 60 1012.7
20260503030003 9 296 0.0 3.2 0.00 0.13 0.13 58 1012.7
20260503024507 9 183 0.0 3.2 0.00 0.13 0.13 58 1012.8
20260503023004 9 104 0.0 3.2 0.00 0.13 0.13 57 1012.9
20260503021509 10 94 0.0 3.2 0.00 0.13 0.13 55 1012.9
20260503020012 10 271 0.0 3.2 0.00 0.13 0.13 53 1012.9
20260503014503 10 9 0.0 3.2 0.00 0.13 0.13 53 1012.9
20260503013009 10 224 0.0 3.2 0.00 0.13 0.13 52 1012.7
20260503011504 10 224 0.0 3.2 0.00 0.13 0.13 51 1012.6